Location: Boston
(42.3580°N, 71.0600°W)
Time: 18:24:19
(UTC-04:00)

ISS - Pass Details

Date: 15 October 2017
Orbit: 401 x 408 km, 51.6° (Epoch: 18 October)

Event Time Altitude Azimuth Distance (km) Brightness Sun altitude
Rises 18:34:21 0° 302° (WNW) 2,323 0.9 -6.8°
Reaches altitude 10° 18:36:27 10° 300° (WNW) 1,462 -0.1 -7.2°
Maximum altitude 18:39:42 70° 217° (SW) 434 -3.5 -7.8°
Drops below altitude 10° 18:42:57 10° 133° (SE) 1,458 -1.4 -8.4°
Enters shadow 18:44:08 - 132° (SE) 1,942 -0.8 -8.6°
